Current Version              Previous Version:    01  02  03  04  05  06  07  08  09  10  11  12  13  14  15  16  17  18  19  20  21  22  23  24  25  26  27  28  29  30  
   31  32  33  34  35  36  37  38  39  40  41  42  43  44  45  46  47  48  49  50  51  52  53  54  55  56  57  58  59  60  

[Printable]
990
ASUS44 KFWD 021110
RWRTX
NORTH TEXAS HOURLY WEATHER ROUNDUP
NATIONAL WEATHER SERVICE FORT WORTH TX
600 AM CDT TUE SEP 02 2014

NOTE: "FAIR" INDICATES FEW OR NO CLOUDS BELOW 12,000 FEET WITH NO
SIGNIFICANT WEATHER AND/OR OBSTRUCTIONS TO VISIBILITY.

TXZ118-119-021200-
DALLAS/FORT WORTH METROPLEX

CITY           SKY/WX    TMP DP  RH WIND       PRES   REMARKS
DFW AIRPORT    CLEAR     80  70  71 S16       29.87S
DALLAS LOVE    CLEAR     80  70  71 S13       29.88S
FTW MEACHAM    CLEAR     80  70  71 S15G22    29.87S
DAL-EXECUTIVE  CLEAR     79  71  76 S7        29.89S
FTW-ALLIANCE   CLEAR     79  69  71 S9        29.86S
FTW-NAS-JRB    CLEAR     82  68  62 S18       29.91S
FTW-SPINKS     CLEAR     78  70  75 S8        29.90S
ARLINGTON      CLEAR     79  70  74 S12       29.88S
GRAND PRAIRIE  CLEAR     79  69  70 S10G18    29.90S
LANCASTER      CLEAR     77  70  80 S7        29.91S
$$

TXZ091>094-102>105-117-120-121-131>134-021200-
NORTH CENTRAL TEXAS

CITY           SKY/WX    TMP DP  RH WIND       PRES   REMARKS
SHRMAN/DENISON CLEAR     77  70  77 S5        29.90S
GAINESVILLE    CLEAR     75  69  79 SE5       29.91R
BOWIE          CLEAR     76  69  77 SE6       29.88R
BRIDGEPORT     CLEAR     79  67  65 S9G16     29.89R
DECATUR        CLEAR     78  67  68 S10G17    29.89R
DENTON         CLEAR     79  68  69 S10       29.87R
MCKINNEY       CLEAR     79  71  76 S14       29.89R
GREENVILLE     CLEAR     77  72  83 S7        29.92R
ROCKWALL       CLEAR     77  73  86 S13       29.89S
TERRELL        CLEAR     78  76  93 S8        29.91S
WAXAHACHIE     CLEAR     76  69  80 S8        29.92S
CLEBURNE       CLEAR     77  73  88 S12       29.92R
GRANBURY       CLEAR     80  70  71 S7        29.90R
$$

TXZ083>090-098>101-113>116-127>130-139>142-154-155-021200-
WESTERN NORTH TEXAS

CITY           SKY/WX    TMP DP  RH WIND       PRES   REMARKS
WICHITA FALLS  CLEAR     81  69  67 S12       29.84S
WF-KICKAPOO    CLEAR     81  67  63 S8        29.86F
VERNON         CLEAR     81  64  55 S10       29.84S
ABILENE        CLEAR     79  68  69 S17G25    29.91R
ABILENE-DYESS  CLEAR     78  68  72 S16       29.89S
BRECKENRIDGE   CLEAR     80  68  65 S12       29.88S HAZE
GRAHAM         CLEAR     79  68  69 S6        29.86S
MINERAL WELLS  CLEAR     77  70  79 S7        29.87S
STEPHENVILLE   CLEAR     76  69  77 S7        29.93S
COMANCHE         N/A     76  68  76 S13G18    29.91S
BROWNWOOD      CLEAR     75  68  78 S8        29.92S
COLEMAN        CLEAR     76  67  75 S8        29.93S
BRADY          CLEAR     73  70  88 SE7       29.94S
$$

TXZ143>147-156>162-174-175-021200-
CENTRAL TEXAS

CITY           SKY/WX    TMP DP  RH WIND       PRES   REMARKS
WACO           CLEAR     78  73  84 S13       29.91S
WACO-MCGREGOR  CLEAR     77  70  78 S13       29.92S
HILLSBORO      PTCLDY    78  71  79 S12       29.91R
CORSICANA      CLOUDY    79  74  84 S9        29.93R
MEXIA          MOCLDY    76  74  93 S8        29.92R
HEARNE           N/A     76  74  96 SE3       29.93S
CAMERON        MOCLDY    77  75  94 S5        29.92S
TEMPLE         PTCLDY    75  70  83 S10       29.92R
KILLEEN        PTCLDY    77  72  83 S12       29.92S
KILLEEN-SKYLRK PTCLDY    75  68  78 S7        29.92R
FORT HOOD      PTCLDY    78  72  81 SE6       29.93R
GATESVILLE     PTCLDY    77  72  83 S5        29.94S
HAMILTON       CLEAR     76  70  82 S14G21    29.92F
LAMPASAS       CLEAR     76  72  89 S3        29.93R
$$

TXZ095>097-106>112-122>126-135>138-148>153-164>167-021200-
EAST TEXAS

CITY           SKY/WX    TMP DP  RH WIND       PRES   REMARKS
PARIS          CLEAR     75  68  78 SE7       29.93S
SULPHUR SPRNGS CLEAR     78  73  86 S7        29.94R
MOUNT PLEASANT CLEAR     77  74  91 SE6       29.95R
GILMER         MOCLDY    79  77  94 S6        29.96R
MINEOLA        PTCLDY    79  75  89 S7        29.94S
TYLER          CLOUDY    79  75  87 S9        29.94R
LONGVIEW       PTCLDY    77  74  90 S7        29.94R
MARSHALL       CLOUDY    78  76  91 S7        29.97R
ATHENS         CLOUDY    77  73  88 S10       29.92R
PALESTINE      PTCLDY    76  76  99 SE5       29.94S
JACKSONVILLE   CLOUDY    78  76  94 S10G16    29.96S
HENDERSON      CLOUDY    77  76  95 S5        29.95R
NACOGDOCHES    CLOUDY    77  75  94 S7        29.95S
LUFKIN         CLOUDY    79  75  87 SE7       29.95S FOG
$$

SUPPLEMENTAL OBSERVATIONS (CENTRAL)

CITY           SKY/WX    TMP DP  RH WIND       PRES   REMARKS
PAT MAYSE LAKE   N/A     77  72  83 E6          N/A
GREENVILLE       N/A     79  73  83 S6          N/A
CEDAR HILL       N/A     79  70  73 S10         N/A
PALESTINE        N/A     77  73  88 S7          N/A
MCGREGOR         N/A     77  72  83 S9          N/A
TEMPLE           N/A     75  72  88 S8          N/A
$$

SUPPLEMENTAL OBSERVATIONS (WEST)

CITY           SKY/WX    TMP DP  RH WIND       PRES   REMARKS
MILLERS CREEK    N/A     81  64  57 S12         N/A
POSSUM KINGDOM   N/A     79  68  69 S7          N/A
GRANBURY         N/A     79  68  69 S9G17       N/A
HAMBY            N/A     79  66  65 S14         N/A
IVIE RESERVOIR   N/A     75  66  73 SE7         N/A
$$

SUPPLEMENTAL OBSERVATIONS (EAST)

CITY           SKY/WX    TMP DP  RH WIND       PRES   REMARKS
TEXARKANA        N/A     79  75  89 S1          N/A
LINDEN           N/A     79  73  83 S2          N/A
LUFKIN           N/A     77  73  88 MISG        N/A
N SABINE NF      N/A     75  73  94 MISG        N/A
$$

SUPPLEMENTAL OBSERVATIONS ARE A COLLECTION OF AUTOMATED INSTRUMENTS
THAT ARE MAINTAINED BY A VARIETY OF FEDERAL AND STATE AGENCIES.
CERTAIN ELEMENTS...SUCH AS HUMIDITY VALUES AND SUSTAINED WIND
SPEEDS...MAY BE APPROXIMATED.